Location: Bilsen
(53.7722°N, 9.8765°E)
Time: 02:48:59
(UTC+00:00)

Cosmos 1943 Rocket - Pass Details

Date: 18 February 2020
Orbit: 813 x 842 km, 71.0° (Epoch: 05 April)

Event Time Altitude Azimuth Distance (km) Brightness Sun altitude
Exits shadow 04:12:46 28° 315° (NW) 1,502 3.2 -21.5°
Maximum altitude 04:15:40 62° 244° (WSW) 913 2.0 -21.1°
Drops below altitude 10° 04:21:04 10° 165° (SSE) 2,400 4.6 -20.3°
Sets 04:23:30 0° 162° (SSE) 3,329 5.4 -20.0°
